O3B FM14 (43233 NORAD) Tracking and Keplerian Element Data

This shows tracking and keplerian element data for the satellite.

Feedback or suggestion? Click here.




ElementValue
Catalog43233
NameO3B FM14
Epoch Orbit6427
Epoch Day261.5340117
Epoch Year2021
RAAN5.4109
Inclination0.0591
Eccentricity0.0002691
Argument of Perigee167.2672
Mean Anonmoly187.3257
Mean Motion5.00116041
Decay Rate-3.2E-07
L11 43233U 18024C 21261.53401170 -.00000032 00000-0 00000-0 0 9999
L22 43233 0.0591 5.4109 0002691 167.2672 187.3257 5.00116041 64270

Live tracking and technical data element details for O3B FM14 (NORAD 43233). O3B FM14 can be tracked NOW for your location showing map with azimuth and elevation plus other details from your city location.

Track the satellite on the map from your city or location and see movement details for azimuth, elevation, latitude, longitude, range, height, and movement on the map or in text.







IsCatalogInMostPopularTable: catalog: 43233, numindb: 557
Update: records affected: 1



GetName: 43233 O3B FM14

Hit Count: updated at: Sun, 26 Sep 2021 00:30:33 GMT